Location: Piolenc
(44.1794°N, 4.7641°E)
Time: 04:34:06
(UTC+00:00)

Cosmos 1408 - Pass Details

Date: 27 January 2021
Orbit: 469 x 492 km, 82.6° (Epoch: 27 February)

Event Time Altitude Azimuth Distance (km) Brightness Sun altitude
Rises 06:27:22 0° 349° (N) 2,531 5.9 -6.9°
Reaches altitude 10° 06:29:28 10° 347° (NNW) 1,651 5.0 -6.5°
Maximum altitude 06:33:03 70° 264° (W) 511 2.5 -5.9°
Drops below altitude 10° 06:36:38 10° 180° (S) 1,649 5.5 -5.3°
Sets 06:38:44 0° 178° (S) 2,527 6.5 -5.0°
